GW5520 Weather Reports


time (UTC)temp
C
wind
direction
speed
KPH
gust
KPH
rain 1hr
cm
rain 24hr
cm
rain mn
cm
humidity
%
barometer
mb
20260906155259 33 78 3.2 6.4 0.00 0.00 0.00 53
20260906154755 33 80 0.0 4.8 0.00 0.00 0.00 53
20260906154250 33 27 1.6 6.4 0.00 0.00 0.00 53
20260906153748 32 282 3.2 6.4 0.00 0.00 0.00 56
20260906153243 32 30 4.8 6.4 0.00 0.00 0.00 55
20260906152738 32 203 0.0 3.2 0.00 0.00 0.00 58
20260906152233 32 171 3.2 4.8 0.00 0.00 0.00 58
20260906151732 32 5 1.6 4.8 0.00 0.00 0.00 58
20260906151228 31 288 0.0 4.8 0.00 0.00 0.00 61
20260906150723 31 11 0.0 9.7 0.00 0.00 0.00 61
20260906150219 30 212 4.8 8.0 0.00 0.00 0.00 62
20260906145718 30 185 3.2 8.0 0.00 0.00 0.00 63
20260906145217 30 115 3.2 8.0 0.00 0.00 0.00 64
20260906144712 30 24 4.8 6.4 0.00 0.00 0.00 64
20260906144207 29 108 1.6 6.4 0.00 0.00 0.00 66
20260906143706 29 295 0.0 4.8 0.00 0.00 0.00 65
20260906143204 29 338 1.6 8.0 0.00 0.00 0.00 66
20260906142703 28 170 3.2 4.8 0.00 0.00 0.00 67
20260906142159 28 65 3.2 4.8 0.00 0.00 0.00 69
20260906141657 27 104 0.0 4.8 0.00 0.00 0.00 70
20260906141152 27 332 1.6 4.8 0.00 0.00 0.00 71
20260906140651 27 63 1.6 3.2 0.00 0.00 0.00 72
20260906140146 27 350 0.0 6.4 0.00 0.00 0.00 73
20260906135643 27 24 4.8 6.4 0.00 0.00 0.00 74
20260906135139 26 88 1.6 3.2 0.00 0.00 0.00 75
20260906134635 26 22 6.4 8.0 0.00 0.00 0.00 76
20260906134130 26 81 3.2 6.4 0.00 0.00 0.00 76
20260906133626 25 65 3.2 9.7 0.00 0.00 0.00 77
20260906133120 25 49 0.0 6.4 0.00 0.00 0.00 77
20260906132615 25 6 3.2 8.0 0.00 0.00 0.00 78
20260906132111 25 10 1.6 6.4 0.00 0.00 0.00 78
20260906131607 25 83 1.6 4.8 0.00 0.00 0.00 78
20260906131101 24 33 3.2 4.8 0.00 0.00 0.00 80
20260906130555 23 105 0.0 4.8 0.00 0.00 0.00 81
20260906130051 23 82 1.6 3.2 0.00 0.00 0.00 82
20260906125548 23 49 0.0 3.2 0.00 0.00 0.00 83
20260906125048 23 56 3.2 3.2 0.00 0.00 0.00 83
20260906124543 22 67 1.6 3.2 0.00 0.00 0.00 84
20260906124038 22 152 0.0 1.6 0.00 0.00 0.00 83
20260906123538 22 43 3.2 3.2 0.00 0.00 0.00 84
20260906123033 23 137 1.6 1.6 0.00 0.00 0.00 83
20260906122532 23 48 3.2 3.2 0.00 0.00 0.00 84
20260906122029 23 60 1.6 3.2 0.00 0.00 0.00 84
20260906121525 23 74 1.6 3.2 0.00 0.00 0.00 83
20260906121021 23 123 1.6 3.2 0.00 0.00 0.00 83
20260906120516 23 63 0.0 3.2 0.00 0.00 0.00 83
20260906120014 23 89 0.0 3.2 0.00 0.00 0.00 83
20260906115514 23 72 0.0 3.2 0.00 0.00 0.00 84
20260906115014 22 31 0.0 3.2 0.00 0.00 0.00 85
20260906114508 22 103 1.6 3.2 0.00 0.00 0.00 86
20260906114004 22 62 0.0 0.0 0.00 0.00 0.00 85
20260906113503 22 74 0.0 3.2 0.00 0.00 0.00 85
20260906112958 22 113 1.6 1.6 0.00 0.00 0.00 85
20260906112453 22 112 0.0 1.6 0.00 0.00 0.00 84
20260906111949 22 58 0.0 3.2 0.00 0.00 0.00 84
20260906111448 22 92 1.6 3.2 0.00 0.00 0.00 83
20260906110943 23 125 1.6 3.2 0.00 0.00 0.00 82
20260906110439 23 89 0.0 1.6 0.00 0.00 0.00 81
20260906105937 23 91 1.6 3.2 0.00 0.00 0.00 80
20260906105433 23 87 0.0 3.2 0.00 0.00 0.00 80
20260906104930 23 96 1.6 3.2 0.00 0.00 0.00 82
20260906104428 22 53 0.0 1.6 0.00 0.00 0.00 84
20260906103927 22 25 0.0 1.6 0.00 0.00 0.00 84
20260906103426 22 88 0.0 1.6 0.00 0.00 0.00 83
20260906102921 22 71 0.0 0.0 0.00 0.00 0.00 83
20260906102421 22 149 0.0 1.6 0.00 0.00 0.00 83
20260906101915 22 63 0.0 1.6 0.00 0.00 0.00 83
20260906101411 22 217 0.0 0.0 0.00 0.00 0.00 83
20260906100906 22 210 1.6 1.6 0.00 0.00 0.00 83
20260906100406 22 326 0.0 0.0 0.00 0.00 0.00 83
20260906095901 22 184 0.0 0.0 0.00 0.00 0.00 82
20260906095356 22 230 0.0 1.6 0.00 0.00 0.00 82
20260906094855 22 219 0.0 1.6 0.00 0.00 0.00 81
20260906094350 22 123 1.6 3.2 0.00 0.00 0.00 80
20260906093847 22 127 1.6 3.2 0.00 0.00 0.00 79
20260906093342 23 69 3.2 3.2 0.00 0.00 0.00 79
20260906092837 23 64 3.2 3.2 0.00 0.00 0.00 78
20260906092337 23 97 1.6 3.2 0.00 0.00 0.00 77
20260906091833 23 59 3.2 3.2 0.00 0.00 0.00 76
20260906091329 23 62 3.2 3.2 0.00 0.00 0.00 76
20260906090826 23 67 1.6 1.6 0.00 0.00 0.00 77
20260906090324 23 114 0.0 3.2 0.00 0.00 0.00 76
20260906085818 23 99 0.0 1.6 0.00 0.00 0.00 77
20260906085317 23 121 0.0 0.0 0.00 0.00 0.00 77
20260906084812 23 144 0.0 1.6 0.00 0.00 0.00 76
20260906084312 23 49 0.0 1.6 0.00 0.00 0.00 76
20260906083807 23 141 0.0 1.6 0.00 0.00 0.00 75
20260906083302 23 212 0.0 1.6 0.00 0.00 0.00 76
20260906082757 23 230 0.0 1.6 0.00 0.00 0.00 77
20260906082252 23 217 0.0 1.6 0.00 0.00 0.00 77
20260906081748 23 239 1.6 3.2 0.00 0.00 0.00 78
20260906081243 23 224 0.0 1.6 0.00 0.00 0.00 78
20260906080739 23 333 0.0 1.6 0.00 0.00 0.00 78
20260906080236 23 246 0.0 1.6 0.00 0.00 0.00 77
20260906075729 23 334 0.0 1.6 0.00 0.00 0.00 77
20260906075229 23 6 0.0 1.6 0.00 0.00 0.00 77
20260906074725 23 233 0.0 1.6 0.00 0.00 0.00 77
20260906074219 23 212 0.0 1.6 0.00 0.00 0.00 77
20260906073719 23 254 0.0 3.2 0.00 0.00 0.00 77
20260906073214 23 259 0.0 3.2 0.00 0.00 0.00 77
20260906072709 23 308 0.0 1.6 0.00 0.00 0.00 76
20260906072205 24 142 0.0 1.6 0.00 0.00 0.00 75
20260906071701 23 135 0.0 3.2 0.00 0.00 0.00 76
20260906071200 23 60 0.0 1.6 0.00 0.00 0.00 76
20260906070657 24 246 0.0 3.2 0.00 0.00 0.00 75
20260906070153 24 183 0.0 3.2 0.00 0.00 0.00 74
20260906065652 25 238 0.0 1.6 0.00 0.00 0.00 73
20260906065148 25 95 1.6 3.2 0.00 0.00 0.00 71
20260906064643 25 120 3.2 3.2 0.00 0.00 0.00 71
20260906064139 25 50 1.6 3.2 0.00 0.00 0.00 72
20260906063639 24 113 0.0 1.6 0.00 0.00 0.00 73
20260906063134 24 240 0.0 1.6 0.00 0.00 0.00 73
20260906062630 24 255 0.0 1.6 0.00 0.00 0.00 74
20260906062129 24 250 0.0 3.2 0.00 0.00 0.00 75
20260906061625 24 227 1.6 3.2 0.00 0.00 0.00 75
20260906061125 24 196 0.0 1.6 0.00 0.00 0.00 75
20260906060621 24 213 1.6 3.2 0.00 0.00 0.00 75
20260906060119 25 233 1.6 3.2 0.00 0.00 0.00 73
20260906055614 25 205 0.0 1.6 0.00 0.00 0.00 73
20260906055109 25 286 0.0 1.6 0.00 0.00 0.00 73
20260906054610 25 189 1.6 3.2 0.00 0.00 0.00 73
20260906054105 25 281 0.0 1.6 0.00 0.00 0.00 74
20260906053601 24 257 0.0 1.6 0.00 0.00 0.00 75
20260906053057 24 248 0.0 1.6 0.00 0.00 0.00 76
20260906052552 24 227 1.6 1.6 0.00 0.00 0.00 76
20260906052049 24 220 0.0 3.2 0.00 0.00 0.00 77
20260906051544 24 224 0.0 1.6 0.00 0.00 0.00 77
20260906051040 24 227 0.0 1.6 0.00 0.00 0.00 76
20260906050535 24 225 1.6 3.2 0.00 0.00 0.00 76
20260906050030 24 306 0.0 3.2 0.00 0.00 0.00 76
20260906045528 25 247 1.6 3.2 0.00 0.00 0.00 75
20260906045024 25 217 0.0 3.2 0.00 0.00 0.00 74
20260906044519 25 226 1.6 3.2 0.00 0.00 0.00 74
20260906044015 25 264 1.6 3.2 0.00 0.00 0.00 73
20260906043510 25 154 0.0 1.6 0.00 0.00 0.00 72
20260906043007 25 137 1.6 3.2 0.00 0.00 0.00 71
20260906042505 25 101 1.6 3.2 0.00 0.00 0.00 71
20260906042005 25 101 0.0 4.8 0.00 0.00 0.00 72
20260906041502 25 229 0.0 0.0 0.00 0.00 0.00 74
20260906041001 25 195 0.0 1.6 0.00 0.00 0.00 74
20260906040456 25 275 1.6 3.2 0.00 0.00 0.00 73
20260906035951 25 235 0.0 3.2 0.00 0.00 0.00 74
20260906035447 25 214 0.0 3.2 0.00 0.00 0.00 74
20260906034943 25 226 0.0 1.6 0.00 0.00 0.00 73
20260906034442 25 242 0.0 1.6 0.00 0.00 0.00 72
20260906033938 25 252 0.0 3.2 0.00 0.00 0.00 71
20260906033438 25 285 1.6 3.2 0.00 0.00 0.00 72
20260906032934 25 254 0.0 3.2 0.00 0.00 0.00 74
20260906032431 25 208 0.0 1.6 0.00 0.00 0.00 75
20260906031930 25 216 1.6 1.6 0.00 0.00 0.00 77
20260906031426 25 235 0.0 1.6 0.00 0.00 0.00 75
20260906030921 25 217 0.0 3.2 0.00 0.00 0.00 74
20260906030415 25 214 0.0 0.0 0.00 0.00 0.00 73
20260906025910 25 217 0.0 1.6 0.00 0.00 0.00 74
20260906025404 25 232 0.0 3.2 0.00 0.00 0.00 73
20260906024903 25 230 0.0 1.6 0.00 0.00 0.00 72
20260906024402 25 322 0.0 0.0 0.00 0.00 0.00 72
20260906023858 26 282 0.0 0.0 0.00 0.00 0.00 72
20260906023355 26 255 0.0 1.6 0.00 0.00 0.00 72
20260906022854 26 217 0.0 1.6 0.00 0.00 0.00 71
20260906022349 26 269 0.0 1.6 0.00 0.00 0.00 71
20260906021845 26 221 0.0 3.2 0.00 0.00 0.00 70
20260906021344 26 216 0.0 3.2 0.00 0.00 0.00 69
20260906020839 26 236 1.6 3.2 0.00 0.00 0.00 69
20260906020338 26 239 4.8 4.8 0.00 0.00 0.00 70
20260906015833 26 239 3.2 3.2 0.00 0.00 0.00 70
20260906015332 26 242 1.6 3.2 0.00 0.00 0.00 68
20260906014832 26 239 0.0 3.2 0.00 0.00 0.00 67
20260906014327 27 252 1.6 1.6 0.00 0.00 0.00 66
20260906013824 27 242 0.0 1.6 0.00 0.00 0.00 65
20260906013319 27 279 1.6 1.6 0.00 0.00 0.00 65
20260906012815 27 269 0.0 0.0 0.00 0.00 0.00 65
20260906012314 27 260 0.0 1.6 0.00 0.00 0.00 65
20260906011809 27 269 1.6 3.2 0.00 0.00 0.00 64
20260906011309 27 309 0.0 0.0 0.00 0.00 0.00 63
20260906010805 27 309 0.0 0.0 0.00 0.00 0.00 63
20260906010301 28 297 0.0 0.0 0.00 0.00 0.00 62
20260906005756 28 255 0.0 0.0 0.00 0.00 0.00 61
20260906005255 28 255 0.0 0.0 0.00 0.00 0.00 61
20260906004754 28 255 0.0 0.0 0.00 0.00 0.00 60
20260906004249 28 247 1.6 1.6 0.00 0.00 0.00 60
20260906003749 29 258 3.2 3.2 0.00 0.00 0.00 58
20260906003245 30 217 0.0 0.0 0.00 0.00 0.00 56
20260906002741 30 297 0.0 0.0 0.00 0.00 0.00 56
20260906002240 30 322 0.0 1.6 0.00 0.00 0.00 55
20260906001735 30 25 0.0 0.0 0.00 0.00 0.00 54
20260906001231 31 350 1.6 1.6 0.00 0.00 0.00 53
20260906000726 31 352 0.0 1.6 0.00 0.00 0.00 53
20260906000226 31 252 0.0 1.6 0.00 0.00 0.00 51
20260905235721 32 297 0.0 0.0 0.00 0.00 0.00 49
20260905235215 32 297 0.0 0.0 0.00 0.00 0.00 49
20260905234711 32 235 0.0 1.6 0.00 0.00 0.00 47
20260905234206 33 217 0.0 1.6 0.00 0.00 0.00 45
20260905233701 33 224 0.0 1.6 0.00 0.00 0.00 45
20260905233201 33 162 0.0 3.2 0.00 0.00 0.00 44
20260905232656 34 202 1.6 3.2 0.00 0.00 0.00 44
20260905232152 34 192 1.6 3.2 0.00 0.00 0.00 43
20260905231647 34 240 0.0 3.2 0.00 0.00 0.00 43
20260905231143 33 195 0.0 3.2 0.00 0.00 0.00 45
20260905230639 33 212 0.0 1.6 0.00 0.00 0.00 46
20260905230137 33 260 1.6 3.2 0.00 0.00 0.00 46
20260905225636 33 217 0.0 3.2 0.00 0.00 0.00 45
20260905225136 33 176 3.2 4.8 0.00 0.00 0.00 44
20260905224636 33 180 3.2 6.4 0.00 0.00 0.00 43
20260905224136 35 200 8.0 8.0 0.00 0.00 0.00 42
20260905223633 33 225 4.8 6.4 0.00 0.00 0.00 43
20260905223129 33 192 4.8 8.0 0.00 0.00 0.00 44
20260905222625 33 228 6.4 9.7 0.00 0.00 0.00 43
20260905222119 35 180 6.4 9.7 0.00 0.00 0.00 40
20260905221615 35 207 3.2 4.8 0.00 0.00 0.00 39
20260905221112 35 209 4.8 16.1 0.00 0.00 0.00 40
20260905220607 35 34 0.0 11.3 0.00 0.00 0.00 39
20260905220103 35 186 3.2 8.0 0.00 0.00 0.00 38
20260905215602 36 165 4.8 4.8 0.00 0.00 0.00 37
20260905215058 35 354 3.2 4.8 0.00 0.00 0.00 38
20260905214554 36 342 1.6 4.8 0.00 0.00 0.00 38
20260905214054 36 342 3.2 3.2 0.00 0.00 0.00 38
20260905213550 36 128 0.0 3.2 0.00 0.00 0.00 37
20260905213045 36 125 3.2 4.8 0.00 0.00 0.00 37
20260905212545 37 100 3.2 3.2 0.00 0.00 0.00 35
20260905212044 38 175 3.2 4.8 0.00 0.00 0.00 34
20260905211540 38 1 3.2 6.4 0.00 0.00 0.00 33
20260905211036 38 53 4.8 8.0 0.00 0.00 0.00 34
20260905210531 37 269 0.0 3.2 0.00 0.00 0.00 32
20260905210031 38 212 3.2 3.2 0.00 0.00 0.00 32
20260905205531 40 292 1.6 6.4 0.00 0.00 0.00 30
20260905205030 39 352 1.6 3.2 0.00 0.00 0.00 31
20260905204525 38 187 3.2 8.0 0.00 0.00 0.00 32
20260905204020 37 134 1.6 3.2 0.00 0.00 0.00 35
20260905203515 37 114 1.6 12.9 0.00 0.00 0.00 34
20260905203010 37 272 1.6 6.4 0.00 0.00 0.00 35
20260905202511 37 43 3.2 4.8 0.00 0.00 0.00 35
20260905202006 37 14 1.6 12.9 0.00 0.00 0.00 36
20260905201502 37 207 3.2 4.8 0.00 0.00 0.00 34
20260905201001 38 82 4.8 4.8 0.00 0.00 0.00 33
20260905200457 38 150 4.8 8.0 0.00 0.00 0.00 33
20260905195955 36 246 3.2 8.0 0.00 0.00 0.00 36
20260905195450 36 261 3.2 4.8 0.00 0.00 0.00 35
20260905194946 37 247 3.2 3.2 0.00 0.00 0.00 36
20260905194445 36 300 1.6 3.2 0.00 0.00 0.00 35
20260905193940 36 240 1.6 4.8 0.00 0.00 0.00 35
20260905193440 37 69 4.8 9.7 0.00 0.00 0.00 34
20260905192935 38 271 4.8 9.7 0.00 0.00 0.00 33
20260905192431 38 263 3.2 6.4 0.00 0.00 0.00 32
20260905191926 38 284 4.8 8.0 0.00 0.00 0.00 32
20260905191425 38 249 4.8 11.3 0.00 0.00 0.00 30
20260905190920 40 54 4.8 6.4 0.00 0.00 0.00 30
20260905190417 39 115 3.2 8.0 0.00 0.00 0.00 31
20260905185916 38 210 1.6 6.4 0.00 0.00 0.00 33
20260905185412 39 140 12.9 12.9 0.00 0.00 0.00 31
20260905184910 38 224 0.0 3.2 0.00 0.00 0.00 34
20260905184411 38 308 0.0 8.0 0.00 0.00 0.00 33
20260905183909 38 240 8.0 11.3 0.00 0.00 0.00 34
20260905183404 38 213 4.8 9.7 0.00 0.00 0.00 34
20260905182859 38 243 9.7 9.7 0.00 0.00 0.00 35
20260905182353 37 123 1.6 6.4 0.00 0.00 0.00 36
20260905181849 37 186 4.8 9.7 0.00 0.00 0.00 35
20260905181348 37 330 3.2 6.4 0.00 0.00 0.00 35
20260905180847 37 352 3.2 6.4 0.00 0.00 0.00 36
20260905180342 37 111 3.2 8.0 0.00 0.00 0.00 36
20260905175838 37 136 3.2 9.7 0.00 0.00 0.00 36
20260905175337 37 218 3.2 6.4 0.00 0.00 0.00 38
20260905174832 37 62 1.6 6.4 0.00 0.00 0.00 36
20260905174329 37 225 0.0 6.4 0.00 0.00 0.00 35
20260905173824 36 223 4.8 6.4 0.00 0.00 0.00 39
20260905173320 36 300 1.6 3.2 0.00 0.00 0.00 39
20260905172820 35 223 4.8 6.4 0.00 0.00 0.00 40
20260905172318 35 282 3.2 4.8 0.00 0.00 0.00 40
20260905171814 36 105 3.2 6.4 0.00 0.00 0.00 38
20260905171311 36 345 3.2 8.0 0.00 0.00 0.00 39
20260905170807 36 330 3.2 12.9 0.00 0.00 0.00 37
20260905170302 36 4 0.0 9.7 0.00 0.00 0.00 39
20260905165801 35 121 3.2 9.7 0.00 0.00 0.00 39
20260905165257 36 26 8.0 14.5 0.00 0.00 0.00 38
20260905164752 36 24 4.8 9.7 0.00 0.00 0.00 38
20260905164252 37 260 6.4 6.4 0.00 0.00 0.00 38
20260905163747 36 138 1.6 4.8 0.00 0.00 0.00 38
20260905163244 36 200 8.0 9.7 0.00 0.00 0.00 39
20260905162739 35 182 3.2 9.7 0.00 0.00 0.00 40
20260905162239 35 207 8.0 8.0 0.00 0.00 0.00 41
20260905161734 35 244 3.2 9.7 0.00 0.00 0.00 40
20260905161232 35 309 4.8 8.0 0.00 0.00 0.00 39
20260905160731 35 218 0.0 4.8 0.00 0.00 0.00 44
20260905160231 35 49 3.2 4.8 0.00 0.00 0.00 44